Change the Weather History Date:

Monday, June 24, 2013

  Actual Average Record
Temperature  
Mean Temperature 68 °F -  
Max Temperature 78 °F 79 °F 102 °F (1988)
Min Temperature 59 °F 55 °F 45 °F (1985)
Cooling Degree Days 4    
Growing Degree Days 18 (Base 50)    
Moisture  
Dew Point 64 °F    
Average Humidity 82    
Maximum Humidity 100    
Minimum Humidity 65    
Precipitation  
Precipitation 0.00 in - - ()
Sea Level Pressure  
Sea Level Pressure 29.86 in    
Wind  
Wind Speed 5 mph (SSE)    
Max Wind Speed 14 mph    
Max Gust Speed 20 mph    
Visibility 10 miles    
Events      
Averages and records for this station are not official NWS values.
T = Trace of Precipitation, MM = Missing Value Source: NWS Daily Summary

Daily Weather History Graph

Daily Weather History Graph

Search for Another Location

Airport or City:

Trip Planner

Search our weather history database for the weather conditions in past years. The results will help you decide how hot, cold, wet, or windy it might be!

Date:

Astronomy

Jun. 24, 2013 Rise Set
Actual Time 5:32 AM CDT 9:14 PM CDT
Civil Twilight 4:54 AM CDT 9:52 PM CDT
Nautical Twilight 4:03 AM CDT 10:43 PM CDT
Astronomical Twilight 2:53 AM CDT 11:53 PM CDT
Moon 10:10 PM CDT (6/24) 7:07 AM CDT (6/24)
Length of Visible Light 16h 58m
Length of Day
15h 41m
Full, 98% of the Moon is Illuminated
Jun 24
Full
Jun 29
Last Quarter
Jul 8
New
Jul 15
First Quarter
Jul 22
Full

Hourly Weather History & Observations

Time (CDT) Temp. Dew Point Humidity Pressure Visibility Wind Dir Wind Speed Gust Speed Precip Events Conditions
12:01 AM 64.4 °F 60.8 °F 88% 29.89 in 10.0 mi SW 3.5 mph - N/A   Clear
12:21 AM 62.6 °F 60.8 °F 94% 29.89 in 10.0 mi South 5.8 mph - N/A   Clear
1:01 AM 62.6 °F 60.8 °F 94% 29.90 in 10.0 mi South 4.6 mph - N/A   Clear
1:21 AM 62.6 °F 60.8 °F 94% 29.90 in 10.0 mi SSW 4.6 mph - N/A   Clear
1:41 AM 62.6 °F 60.8 °F 94% 29.91 in 10.0 mi South 4.6 mph - N/A   Clear
2:01 AM 60.8 °F 59.0 °F 94% 29.91 in 7.0 mi South 3.5 mph - N/A   Clear
2:21 AM 60.8 °F 59.0 °F 94% 29.90 in 10.0 mi South 4.6 mph - N/A   Clear
2:41 AM 60.8 °F 59.0 °F 94% 29.90 in 10.0 mi South 3.5 mph - N/A   Clear
3:01 AM 60.8 °F 59.0 °F 94% 29.90 in 10.0 mi South 5.8 mph - N/A   Clear
3:21 AM 60.8 °F 59.0 °F 94% 29.89 in 10.0 mi South 3.5 mph - N/A   Clear
3:41 AM 60.8 °F 59.0 °F 94% 29.89 in 10.0 mi South 3.5 mph - N/A   Clear
4:01 AM 60.8 °F 57.2 °F 88% 29.88 in 10.0 mi South 2.3 mph - N/A   Clear
4:21 AM 60.8 °F 59.0 °F 94% 29.88 in 10.0 mi South 2.3 mph - N/A   Clear
4:41 AM 59.0 °F 59.0 °F 100% 29.89 in 10.0 mi SSW 2.3 mph - N/A   Clear
5:14 AM 59.0 °F 59.0 °F 100% 29.90 in 10.0 mi South 3.5 mph - N/A   Clear
5:21 AM 60.8 °F 59.0 °F 94% 29.91 in 10.0 mi South 3.5 mph - N/A   Clear
5:41 AM 60.8 °F 59.0 °F 94% 29.90 in 10.0 mi South 2.3 mph - N/A   Clear
6:01 AM 60.8 °F 59.0 °F 94% 29.90 in 10.0 mi South 2.3 mph - N/A   Clear
6:21 AM 60.8 °F 59.0 °F 94% 29.90 in 10.0 mi SSW 2.3 mph - N/A   Clear
6:41 AM 60.8 °F 59.0 °F 94% 29.91 in 10.0 mi South 3.5 mph - N/A   Clear
7:09 AM 64.4 °F 62.6 °F 94% 29.91 in 10.0 mi South 4.6 mph - N/A   Clear
7:25 AM 64.4 °F 62.6 °F 94% 29.90 in 10.0 mi South 2.3 mph - N/A   Clear
7:52 AM 66.2 °F 62.6 °F 88% 29.88 in 10.0 mi SE 2.3 mph - N/A   Clear
8:07 AM 68.0 °F 62.6 °F 83% 29.88 in 10.0 mi SE 2.3 mph - N/A   Clear
8:21 AM 68.0 °F 62.6 °F 83% 29.89 in 10.0 mi SE 1.2 mph - N/A   Clear
8:41 AM 71.6 °F 62.6 °F 73% 29.90 in 10.0 mi South 3.5 mph - N/A   Clear
9:01 AM 71.6 °F 64.4 °F 78% 29.90 in 10.0 mi South 4.6 mph - N/A   Clear
9:35 AM 73.4 °F 64.4 °F 73% 29.89 in 10.0 mi SSE 5.8 mph - N/A   Clear
9:50 AM 73.4 °F 62.6 °F 69% 29.90 in 10.0 mi South 9.2 mph - N/A   Clear
10:01 AM 73.4 °F 62.6 °F 69% 29.90 in 10.0 mi South 6.9 mph - N/A   Clear
10:21 AM 73.4 °F 62.6 °F 69% 29.90 in 10.0 mi South 9.2 mph - N/A   Clear
10:48 AM 73.4 °F 62.6 °F 69% 29.90 in 10.0 mi South 10.4 mph - N/A   Clear
11:03 AM 75.2 °F 62.6 °F 65% 29.90 in 10.0 mi South 9.2 mph - N/A   Clear
11:23 AM 75.2 °F 64.4 °F 69% 29.88 in 10.0 mi SSE 8.1 mph - N/A   Clear
11:41 AM 75.2 °F 64.4 °F 69% 29.87 in 10.0 mi SSE 10.4 mph - N/A   Clear
12:06 PM 75.2 °F 64.4 °F 69% 29.85 in 10.0 mi SE 6.9 mph - N/A   Clear
12:21 PM 75.2 °F 64.4 °F 69% 29.86 in 10.0 mi SE 5.8 mph - N/A   Clear
12:41 PM 77.0 °F 64.4 °F 65% 29.87 in 10.0 mi SE 9.2 mph - N/A   Clear
1:07 PM 77.0 °F 64.4 °F 65% 29.87 in 10.0 mi SSE 10.4 mph - N/A   Clear
1:22 PM 78.8 °F 66.2 °F 65% 29.86 in 10.0 mi SE 9.2 mph - N/A   Clear
1:41 PM 78.8 °F 66.2 °F 65% 29.85 in 10.0 mi SE 10.4 mph - N/A   Clear
2:01 PM 78.8 °F 66.2 °F 65% 29.85 in 10.0 mi SE 11.5 mph - N/A   Clear
2:21 PM 78.8 °F 66.2 °F 65% 29.85 in 10.0 mi SE 8.1 mph - N/A   Clear
2:49 PM 78.8 °F 66.2 °F 65% 29.84 in 10.0 mi ESE 9.2 mph - N/A   Clear
3:01 PM 78.8 °F 66.2 °F 65% 29.84 in 10.0 mi ESE 11.5 mph - N/A   Clear
3:24 PM 78.8 °F 66.2 °F 65% 29.83 in 10.0 mi ESE 12.7 mph 19.6 mph N/A   Clear
3:41 PM 78.8 °F 66.2 °F 65% 29.82 in 10.0 mi ESE 8.1 mph - N/A   Clear
4:01 PM 78.8 °F 66.2 °F 65% 29.83 in 10.0 mi ESE 8.1 mph - N/A   Clear
4:21 PM 78.8 °F 66.2 °F 65% 29.84 in 10.0 mi SSE 12.7 mph - N/A   Clear
4:41 PM 78.8 °F 68.0 °F 69% 29.84 in 10.0 mi SSE 13.8 mph - N/A   Clear
5:01 PM 77.0 °F 68.0 °F 74% 29.84 in 10.0 mi SSE 10.4 mph - N/A   Clear
5:21 PM 77.0 °F 69.8 °F 78% 29.84 in 10.0 mi SE 9.2 mph - N/A   Clear
5:41 PM 75.2 °F 68.0 °F 78% 29.82 in 10.0 mi SE 11.5 mph - N/A   Clear
6:01 PM 75.2 °F 69.8 °F 83% 29.81 in 10.0 mi SE 11.5 mph 17.3 mph N/A   Clear
6:21 PM 75.2 °F 69.8 °F 83% 29.81 in 10.0 mi ESE 9.2 mph - N/A   Clear
6:41 PM 75.2 °F 69.8 °F 83% 29.81 in 10.0 mi ESE 5.8 mph - N/A   Clear
7:01 PM 75.2 °F 69.8 °F 83% 29.81 in 10.0 mi ESE 8.1 mph - N/A   Clear
7:21 PM 75.2 °F 69.8 °F 83% 29.81 in 10.0 mi ESE 6.9 mph - N/A   Clear
7:41 PM 75.2 °F 69.8 °F 83% 29.82 in 10.0 mi SE 4.6 mph - N/A   Clear
8:01 PM 73.4 °F 69.8 °F 88% 29.82 in 10.0 mi SSE 2.3 mph - N/A   Clear
8:21 PM 73.4 °F 69.8 °F 88% 29.82 in 10.0 mi SSE 5.8 mph - N/A   Clear
8:41 PM 73.4 °F 69.8 °F 88% 29.81 in 10.0 mi SE 4.6 mph - N/A   Clear
9:01 PM 73.4 °F 69.8 °F 88% 29.80 in 10.0 mi East 4.6 mph - N/A   Clear
9:21 PM 71.6 °F 69.8 °F 94% 29.80 in 10.0 mi East 4.6 mph - N/A   Clear
10:01 PM 69.8 °F 68.0 °F 94% 29.82 in 10.0 mi ESE 4.6 mph - N/A   Clear
10:21 PM 69.8 °F 66.2 °F 88% 29.82 in 10.0 mi SE 4.6 mph - N/A   Clear
10:41 PM 69.8 °F 66.2 °F 88% 29.82 in 10.0 mi SE 4.6 mph - N/A   Clear
11:01 PM 68.0 °F 66.2 °F 94% 29.82 in 10.0 mi SE 5.8 mph - N/A   Clear
11:21 PM 68.0 °F 66.2 °F 94% 29.82 in 10.0 mi ESE 4.6 mph - N/A   Clear
11:41 PM 66.2 °F 66.2 °F 100% 29.82 in 10.0 mi SE 4.6 mph - N/A   Clear